PLF038 LROP-LRCV

Flight info

Callsign PLF038
Flight time 0h 28m
Altitude 14000
Route VAMON DCT PEMOK
Aircraft C295/M-SDFGIRY/S

Departure

Time 2026-04-23 08:11
Airport Bucharest Henri Coandă International Airport (LROP)

Arrival

Time 2026-04-23 08:39
Airport Craiova International Airport (LRCV)
Time Latitude Longitude Altitude Speed Heading
2026-04-23 07:50 44.56176 26.08558 309 ft 0 kts 262°
2026-04-23 08:00 44.56179 26.08595 317 ft 6 kts 270°
2026-04-23 08:00 44.56174 26.08649 316 ft 0 kts 318°
2026-04-23 08:01 44.56177 26.08651 316 ft 1 kts
2026-04-23 08:01 44.56215 26.08651 317 ft 7 kts 357°
2026-04-23 08:01 44.56265 26.08644 317 ft 8 kts 353°
2026-04-23 08:01 44.56318 26.08634 317 ft 8 kts 352°
2026-04-23 08:02 44.56372 26.08625 317 ft 8 kts 354°
2026-04-23 08:02 44.56430 26.08616 317 ft 8 kts 353°
2026-04-23 08:02 44.56487 26.08607 318 ft 8 kts 358°
2026-04-23 08:02 44.56541 26.08604 318 ft 8 kts 353°
2026-04-23 08:03 44.56600 26.08596 318 ft 10 kts 355°
2026-04-23 08:03 44.56677 26.08583 315 ft 12 kts 350°
2026-04-23 08:03 44.56760 26.08573 316 ft 12 kts 355°
2026-04-23 08:03 44.56845 26.08558 316 ft 12 kts 354°
2026-04-23 08:04 44.56930 26.08548 317 ft 12 kts 354°
2026-04-23 08:04 44.57014 26.08535 318 ft 12 kts 354°
2026-04-23 08:04 44.57101 26.08530 317 ft 13 kts
2026-04-23 08:04 44.57188 26.08515 318 ft 12 kts 352°
2026-04-23 08:05 44.57253 26.08504 318 ft 9 kts 351°
2026-04-23 08:05 44.57321 26.08494 319 ft 10 kts 354°
2026-04-23 08:05 44.57396 26.08484 319 ft 11 kts 356°
2026-04-23 08:05 44.57474 26.08486 319 ft 12 kts 23°
2026-04-23 08:06 44.57502 26.08620 319 ft 18 kts 84°
2026-04-23 08:06 44.57517 26.08821 318 ft 23 kts 84°
2026-04-23 08:06 44.57538 26.09059 318 ft 26 kts 85°
2026-04-23 08:06 44.57556 26.09319 316 ft 28 kts 83°
2026-04-23 08:07 44.57577 26.09596 316 ft 29 kts 83°
2026-04-23 08:07 44.57599 26.09874 315 ft 29 kts 83°
2026-04-23 08:07 44.57620 26.10157 316 ft 29 kts 82°
2026-04-23 08:07 44.57642 26.10443 314 ft 29 kts 83°
2026-04-23 08:08 44.57661 26.10727 314 ft 29 kts 83°
2026-04-23 08:08 44.57683 26.11010 313 ft 29 kts 82°
2026-04-23 08:08 44.57703 26.11295 313 ft 30 kts 86°
2026-04-23 08:08 44.57726 26.11586 312 ft 31 kts 83°
2026-04-23 08:09 44.57747 26.11881 312 ft 30 kts 84°
2026-04-23 08:09 44.57770 26.12174 311 ft 30 kts 85°
2026-04-23 08:09 44.57792 26.12456 310 ft 28 kts 82°
2026-04-23 08:09 44.57808 26.12726 310 ft 27 kts 88°
2026-04-23 08:10 44.57908 26.12836 309 ft 20 kts 315°
2026-04-23 08:10 44.57982 26.12707 308 ft 15 kts 279°
2026-04-23 08:10 44.57908 26.11695 313 ft 104 kts 264°
2026-04-23 08:11 44.57808 26.10511 423 ft 131 kts 262°
2026-04-23 08:11 44.57665 26.09334 1035 ft 124 kts 262°
2026-04-23 08:11 44.57550 26.08122 1667 ft 128 kts 266°
2026-04-23 08:11 44.57459 26.06823 2084 ft 146 kts 266°
2026-04-23 08:12 44.57274 26.05349 2411 ft 157 kts 261°
2026-04-23 08:12 44.57044 26.03829 2842 ft 160 kts 261°
2026-04-23 08:12 44.56841 26.02276 3297 ft 163 kts 263°
2026-04-23 08:12 44.56715 26.01216 3597 ft 164 kts 262°
2026-04-23 08:13 44.56529 25.99656 4066 ft 165 kts 263°
2026-04-23 08:13 44.56333 25.98066 4441 ft 166 kts 263°
2026-04-23 08:13 44.56134 25.96466 4914 ft 167 kts 264°
2026-04-23 08:13 44.55943 25.94861 5334 ft 168 kts 264°
2026-04-23 08:14 44.55763 25.93240 5760 ft 169 kts 264°
2026-04-23 08:14 44.55583 25.91609 6244 ft 169 kts 263°
2026-04-23 08:14 44.55387 25.89976 6688 ft 170 kts 263°
2026-04-23 08:14 44.55169 25.88339 7031 ft 172 kts 263°
2026-04-23 08:15 44.54958 25.86691 7456 ft 172 kts 263°
2026-04-23 08:15 44.54754 25.85036 7861 ft 173 kts 264°
2026-04-23 08:15 44.54550 25.83375 8212 ft 173 kts 264°
2026-04-23 08:15 44.54641 25.81759 8495 ft 166 kts 294°
2026-04-23 08:16 44.55026 25.80220 8832 ft 169 kts 289°
2026-04-23 08:16 44.55293 25.78610 9215 ft 170 kts 284°
2026-04-23 08:16 44.55479 25.76989 9578 ft 171 kts 283°
2026-04-23 08:16 44.55613 25.75322 9930 ft 173 kts 278°
2026-04-23 08:17 44.55643 25.73624 10240 ft 175 kts 274°
2026-04-23 08:17 44.55573 25.71911 10557 ft 177 kts 269°
2026-04-23 08:17 44.55409 25.70196 10851 ft 178 kts 265°
2026-04-23 08:17 44.55179 25.68477 11157 ft 180 kts 264°
2026-04-23 08:18 44.54917 25.66753 11471 ft 181 kts 263°
2026-04-23 08:18 44.54643 25.65025 11774 ft 182 kts 262°
2026-04-23 08:18 44.54370 25.63309 12057 ft 183 kts 263°
2026-04-23 08:18 44.54102 25.61557 12375 ft 184 kts 263°
2026-04-23 08:19 44.53842 25.59801 12657 ft 185 kts 263°
2026-04-23 08:19 44.53581 25.58030 12950 ft 186 kts 263°
2026-04-23 08:19 44.53318 25.56252 13233 ft 186 kts 263°
2026-04-23 08:19 44.53055 25.54472 13513 ft 187 kts 263°
2026-04-23 08:20 44.52792 25.52678 13734 ft 193 kts 264°
2026-04-23 08:20 44.52514 25.50757 13745 ft 207 kts 263°
2026-04-23 08:20 44.52224 25.48734 13855 ft 215 kts 263°
2026-04-23 08:20 44.51927 25.46645 13960 ft 222 kts 263°
2026-04-23 08:21 44.51612 25.44487 13998 ft 231 kts 263°
2026-04-23 08:21 44.51278 25.42238 14008 ft 240 kts 262°
2026-04-23 08:21 44.50926 25.39925 14019 ft 246 kts 262°
2026-04-23 08:21 44.50562 25.37551 14027 ft 252 kts 262°
2026-04-23 08:22 44.50195 25.35128 14019 ft 256 kts 262°
2026-04-23 08:22 44.49822 25.32699 14034 ft 260 kts 261°
2026-04-23 08:22 44.49440 25.30208 14035 ft 263 kts 262°
2026-04-23 08:22 44.49060 25.27690 14034 ft 265 kts 262°
2026-04-23 08:23 44.48677 25.25155 14032 ft 267 kts 262°
2026-04-23 08:23 44.48292 25.22596 14031 ft 269 kts 262°
2026-04-23 08:23 44.47904 25.20026 14031 ft 270 kts 262°
2026-04-23 08:23 44.47515 25.17452 14033 ft 270 kts 262°
2026-04-23 08:24 44.47126 25.14876 14032 ft 271 kts 262°
2026-04-23 08:24 44.46736 25.12293 14043 ft 271 kts 262°
2026-04-23 08:24 44.46342 25.09706 14039 ft 272 kts 262°
2026-04-23 08:24 44.45949 25.07122 14040 ft 272 kts 261°
2026-04-23 08:25 44.45554 25.04524 14044 ft 273 kts 261°
2026-04-23 08:25 44.45157 25.01921 14040 ft 273 kts 261°
2026-04-23 08:25 44.44759 24.99315 14033 ft 274 kts 262°
2026-04-23 08:25 44.44360 24.96713 14032 ft 273 kts 261°
2026-04-23 08:26 44.43967 24.94138 14039 ft 274 kts 261°
2026-04-23 08:26 44.43566 24.91534 14047 ft 274 kts 261°
2026-04-23 08:26 44.43165 24.88926 14054 ft 274 kts 261°
2026-04-23 08:26 44.42762 24.86314 14047 ft 275 kts 261°
2026-04-23 08:27 44.42360 24.83674 13807 ft 283 kts 261°
2026-04-23 08:27 44.41949 24.80929 13407 ft 293 kts 262°
2026-04-23 08:27 44.41533 24.78103 13012 ft 300 kts 262°
2026-04-23 08:27 44.41110 24.75281 12666 ft 292 kts 261°
2026-04-23 08:28 44.40689 24.72543 12313 ft 284 kts 261°
2026-04-23 08:28 44.40271 24.69870 11957 ft 278 kts 261°
2026-04-23 08:28 44.39879 24.67248 11612 ft 273 kts 263°
2026-04-23 08:28 44.39552 24.64662 11259 ft 266 kts 265°
2026-04-23 08:29 44.39291 24.62154 10901 ft 261 kts 266°
2026-04-23 08:29 44.39048 24.59658 10544 ft 257 kts 266°
2026-04-23 08:29 44.38792 24.57200 10195 ft 253 kts 266°
2026-04-23 08:29 44.38542 24.54778 9839 ft 251 kts 266°
2026-04-23 08:30 44.38288 24.52371 9429 ft 249 kts 265°
2026-04-23 08:30 44.38038 24.49988 9039 ft 247 kts 265°
2026-04-23 08:30 44.37791 24.47624 8655 ft 245 kts 265°
2026-04-23 08:30 44.37544 24.45281 8240 ft 243 kts 266°
2026-04-23 08:31 44.37300 24.42952 7881 ft 241 kts 265°
2026-04-23 08:31 44.37056 24.40640 7512 ft 239 kts 265°
2026-04-23 08:31 44.36811 24.38348 7167 ft 238 kts 265°
2026-04-23 08:31 44.36567 24.36065 6868 ft 236 kts 265°
2026-04-23 08:32 44.36286 24.33809 6507 ft 235 kts 259°
2026-04-23 08:32 44.35777 24.31638 6182 ft 236 kts 253°
2026-04-23 08:32 44.35188 24.29507 5827 ft 234 kts 252°
2026-04-23 08:32 44.34599 24.27391 5494 ft 233 kts 252°
2026-04-23 08:33 44.34022 24.25317 5164 ft 231 kts 252°
2026-04-23 08:33 44.33440 24.23229 4805 ft 230 kts 252°
2026-04-23 08:33 44.32894 24.21187 4453 ft 213 kts 258°
2026-04-23 08:33 44.32647 24.19259 4058 ft 194 kts 265°
2026-04-23 08:34 44.32473 24.17439 3634 ft 185 kts 265°
2026-04-23 08:34 44.32328 24.15683 3225 ft 179 kts 266°
2026-04-23 08:34 44.32199 24.13974 2792 ft 176 kts 266°
2026-04-23 08:34 44.32103 24.12297 2683 ft 168 kts 269°
2026-04-23 08:35 44.32068 24.10731 2709 ft 154 kts 272°
2026-04-23 08:35 44.32071 24.09242 2717 ft 154 kts 272°
2026-04-23 08:35 44.32072 24.07744 2711 ft 155 kts 271°
2026-04-23 08:35 44.32051 24.06233 2699 ft 155 kts 271°
2026-04-23 08:36 44.32035 24.04731 2670 ft 154 kts 272°
2026-04-23 08:36 44.32010 24.03235 2507 ft 160 kts 270°
2026-04-23 08:36 44.31978 24.01658 2283 ft 165 kts 270°
2026-04-23 08:36 44.31963 24.00042 2037 ft 165 kts 270°
2026-04-23 08:37 44.31945 23.98545 1834 ft 140 kts 270°
2026-04-23 08:37 44.31926 23.97275 1668 ft 124 kts 270°
2026-04-23 08:37 44.31910 23.96090 1492 ft 121 kts 269°
2026-04-23 08:37 44.31888 23.94923 1306 ft 119 kts 269°
2026-04-23 08:38 44.31876 23.93783 1129 ft 115 kts 269°
2026-04-23 08:38 44.31868 23.92684 964 ft 112 kts 268°
2026-04-23 08:38 44.31854 23.91610 818 ft 109 kts 267°
2026-04-23 08:38 44.31837 23.90565 659 ft 108 kts 269°
2026-04-23 08:39 44.31822 23.89614 624 ft 85 kts 269°
2026-04-23 08:39 44.31819 23.88986 624 ft 47 kts 270°
2026-04-23 08:39 44.31812 23.88624 624 ft 31 kts 267°
2026-04-23 08:39 44.31807 23.88363 626 ft 22 kts 269°
2026-04-23 08:40 44.31805 23.88161 630 ft 19 kts 269°
2026-04-23 08:40 44.31804 23.87986 629 ft 16 kts 270°
2026-04-23 08:40 44.31795 23.87848 637 ft 13 kts 242°
2026-04-23 08:40 44.31723 23.87835 633 ft 13 kts 173°
2026-04-23 08:41 44.31625 23.87838 630 ft 15 kts 178°
2026-04-23 08:41 44.31521 23.87840 629 ft 15 kts 178°
2026-04-23 08:41 44.31412 23.87842 632 ft 16 kts 180°
2026-04-23 08:41 44.31345 23.87892 629 ft 8 kts 171°
2026-04-23 08:42 44.31334 23.87885 631 ft 0 kts 227°